Theta_e
312 314 316 317 316 313 306 310 311 311 309 305 301 301 301 302 303 307 305 305 308 312 308 308 311 314 314 315 315 316 316 316 316 316 317 318 319 317 317 318 318 319 319 320 318
307 312 314 317 317 314 308 311 312 311 313 313 308 302 302 302 302 303 305 305 305 310 309 311 314 313 315 315 315 314 315 316 317 317 318 318 318 318 317 318 319 319 318 318 317
302 304 310 314 317 316 313 313 313 312 312 313 313 309 302 302 306 306 304 304 304 306 313 313 314 314 315 315 315 314 317 317 316 317 316 317 317 317 318 320 320 320 320 318 316
304 300 305 311 315 317 314 315 315 315 314 313 313 313 308 302 310 309 305 304 304 306 310 314 314 315 315 316 314 316 315 314 316 314 315 316 316 317 316 318 318 317 317 317 318
304 303 301 306 312 313 316 317 315 315 316 314 312 315 308 307 309 311 310 307 303 306 313 313 314 314 316 315 316 316 316 315 315 314 314 314 314 316 317 317 317 317 315 316 317
302 304 302 301 310 314 314 317 316 315 314 314 313 315 313 308 305 309 308 305 306 309 313 313 314 314 314 315 316 316 316 316 315 315 315 315 316 315 318 317 317 317 317 318 318
299 304 303 301 307 312 315 316 317 314 314 315 314 315 314 306 306 310 306 309 309 313 314 314 314 313 314 315 315 315 316 317 317 316 317 315 318 318 319 318 318 318 318 318 318
299 303 302 301 301 309 310 314 316 314 314 315 314 315 316 312 308 311 310 310 311 312 313 312 313 314 315 315 315 316 316 317 317 316 316 316 321 321 318 319 320 321 321 320 320
299 301 302 300 299 306 311 313 315 314 315 315 314 315 315 312 309 310 312 311 311 310 311 312 314 314 315 316 316 318 319 317 319 317 318 317 322 320 318 319 320 321 321 320 318
298 300 302 300 299 301 309 312 314 315 314 315 314 314 312 310 309 309 311 312 312 310 313 314 315 315 315 315 320 319 317 318 320 319 318 320 320 320 320 320 320 318 317 316 315
298 300 301 299 299 299 308 311 311 313 315 315 315 313 312 309 309 311 310 312 312 312 313 314 314 316 314 314 315 316 317 317 319 316 318 320 321 320 320 317 316 315 315 314 314
298 300 300 298 297 297 307 308 312 311 313 312 312 310 309 309 310 312 311 312 313 313 313 314 314 314 314 315 315 315 318 319 317 316 316 319 319 320 317 313 312 313 312 312 312
299 299 297 297 296 295 307 308 310 311 311 312 312 311 308 308 309 312 312 313 313 313 313 311 312 313 314 313 314 314 316 318 316 315 316 318 324 318 315 312 310 310 310 310 310
297 297 296 295 294 295 303 308 309 309 312 310 312 313 308 308 310 311 312 312 312 313 313 312 312 312 313 313 313 313 314 315 315 315 321 318 336 323 318 315 312 309 308 308 309
291 291 291 291 299 298 301 308 309 309 319 310 310 311 309 309 310 311 311 310 312 312 312 312 312 313 313 312 314 314 314 315 315 318 320 321 326 326 316 318 311 308 307 306 307
290 290 290 292 298 299 300 306 307 310 318 312 309 312 311 311 310 311 311 309 311 311 311 312 310 313 313 311 312 313 315 316 317 319 325 323 324 331 316 309 309 307 305 304 304
290 290 295 297 299 299 304 305 309 314 305 312 312 312 313 313 312 312 311 310 310 312 312 311 312 311 311 313 312 314 316 323 324 324 324 314 318 318 308 307 305 305 303 303 302
291 292 297 297 299 301 303 306 312 308 308 310 311 313 315 314 313 312 311 309 309 309 309 310 308 311 312 315 315 315 317 324 326 325 322 312 319 316 305 304 303 303 302 301 301
292 294 296 297 299 301 304 306 308 306 310 311 312 315 315 314 314 313 312 311 308 310 310 307 309 309 310 311 314 315 316 313 313 310 315 316 313 307 306 304 303 302 301 299 298
294 295 296 297 298 301 306 306 304 305 308 310 311 313 316 315 314 314 314 313 311 310 311 312 312 309 309 310 310 313 314 316 317 320 317 314 313 316 308 306 302 301 299 298 298
294 295 295 297 298 300 307 303 304 304 305 311 311 311 311 314 313 315 314 312 312 312 313 315 315 310 310 312 312 312 313 313 314 314 312 311 312 306 306 303 301 299 298 297 297
295 297 293 296 301 300 305 302 301 301 305 308 309 311 311 313 314 315 313 310 309 311 313 315 317 314 310 308 309 310 311 313 311 313 312 312 312 303 302 300 300 298 297 296 295
296 295 294 297 302 301 299 298 298 301 301 306 307 308 307 310 312 310 310 306 308 311 313 314 314 319 315 313 310 311 311 311 311 311 313 313 311 302 300 299 298 298 296 295 295
294 298 296 295 293 301 301 299 300 297 299 301 303 306 308 307 308 309 307 304 304 306 308 312 313 317 319 316 313 311 311 311 311 314 312 312 308 303 302 300 298 296 295 295 294
293 291 291 299 296 297 297 298 298 299 297 299 303 304 307 306 305 305 305 306 303 302 305 309 314 312 311 310 311 311 310 311 311 312 313 313 311 306 303 300 297 296 295 294 293
293 294 292 292 292 296 297 295 296 294 296 299 300 301 304 302 300 304 303 304 303 303 305 306 311 310 310 310 310 312 310 311 311 311 311 309 305 304 300 297 297 295 294 293 291
289 291 294 293 295 297 294 295 294 295 294 295 298 297 295 293 293 294 295 296 297 301 304 307 309 311 313 308 310 313 308 307 305 303 305 312 304 299 298 297 295 294 293 292 290
Wind_Speed
13 7 3 18 11 6 11 9 6 3 3 6 10 12 13 15 15 19 18 14 19 14 13 14 11 10 11 9 6 4 5 9 11 9 2 4 3 3 4 5 3 4 2 6 5
18 12 8 11 17 11 11 11 8 6 5 3 6 10 11 13 13 17 14 15 17 10 14 19 16 14 10 8 6 9 7 9 2 5 3 2 3 1 2 5 7 8 7 12 9
18 21 12 13 18 16 11 12 11 9 8 6 6 6 10 9 3 10 17 15 17 16 12 12 13 14 9 6 8 6 5 5 3 4 2 5 6 3 5 8 11 8 6 11 8
16 21 18 10 7 21 18 15 14 13 10 8 7 6 7 13 6 8 14 19 19 18 17 16 16 11 8 7 10 5 12 9 2 2 3 5 6 8 9 17 10 9 9 9 10
12 18 21 14 10 13 21 18 15 15 12 11 10 8 8 8 6 6 14 15 20 20 18 17 19 13 9 12 8 14 9 6 11 6 7 11 13 14 18 18 17 15 13 13 14
16 14 18 18 11 14 15 15 19 16 13 10 10 8 8 10 8 7 11 18 19 20 17 14 12 11 10 4 12 2 12 11 6 8 7 6 13 2 11 6 5 6 8 8 9
24 9 18 15 17 15 18 22 23 17 15 12 9 8 7 5 9 12 15 14 18 12 16 13 9 11 7 5 5 4 7 9 10 6 3 3 9 13 17 7 7 5 5 6 8
23 17 18 18 21 15 26 15 23 18 15 13 10 7 4 9 9 13 16 17 16 17 12 12 10 9 3 4 4 5 6 7 6 3 2 3 7 7 2 1 6 8 7 5 5
15 14 17 17 18 20 19 21 19 19 15 13 8 7 4 10 12 15 13 17 18 16 13 12 10 6 5 5 4 5 5 9 5 3 2 7 4 5 2 12 13 12 9 8 7
17 19 17 18 16 22 13 15 20 18 15 10 7 5 7 8 15 16 17 18 12 16 12 9 8 8 8 8 5 6 5 5 5 3 3 6 12 12 13 13 10 7 7 8 10
13 20 17 16 16 18 14 16 10 7 23 5 5 0 10 14 17 13 17 13 14 16 10 15 9 12 16 14 4 2 4 5 2 3 4 7 10 13 13 7 10 12 13 14 15
13 16 17 18 15 14 18 5 8 6 5 4 7 4 10 13 8 13 22 10 14 13 9 5 13 10 5 8 10 5 3 3 1 0 3 8 12 3 8 10 15 16 18 19 18
12 17 16 14 11 13 21 7 13 12 4 4 8 6 9 10 7 16 15 9 13 12 14 8 1 9 11 8 8 9 9 3 4 4 6 8 7 9 9 14 17 19 18 20 21
9 11 10 8 6 12 22 10 10 10 3 5 7 5 8 7 5 11 12 6 5 13 13 6 4 11 13 12 12 11 9 11 8 3 5 2 2 2 7 8 15 20 21 20 22
3 5 6 10 4 10 18 14 8 9 7 11 5 7 9 5 19 8 11 2 9 9 6 4 7 9 13 12 11 3 4 9 8 9 6 6 3 3 3 2 12 18 20 20 20
3 4 5 8 7 10 19 15 10 2 5 5 4 9 10 8 3 11 8 4 6 5 3 5 1 4 2 3 11 10 7 6 3 3 4 4 4 5 2 4 9 14 17 19 19
2 4 9 11 7 14 26 20 2 4 3 5 5 8 13 7 7 14 14 9 7 6 9 4 4 2 3 8 5 7 9 2 4 4 4 2 4 5 4 7 8 11 15 17 17
5 5 9 8 12 21 26 7 6 2 2 7 9 15 5 8 3 12 16 11 5 4 12 9 5 9 9 5 6 13 9 4 5 4 3 2 6 3 7 7 8 11 13 15 17
4 3 6 8 9 13 7 4 1 5 6 12 15 5 5 8 8 6 12 11 11 7 2 9 6 2 1 1 2 6 6 3 4 1 1 5 4 6 7 8 10 13 14 16 16
2 3 1 7 9 7 3 6 1 3 5 16 6 8 5 7 8 8 12 7 6 8 4 1 4 2 2 2 2 2 3 3 2 3 5 4 3 2 8 6 8 11 14 14 14
1 1 2 8 3 1 6 3 4 2 5 1 7 7 7 9 6 12 15 4 4 9 4 6 2 3 3 8 10 4 3 3 2 2 2 2 3 5 8 6 7 10 12 13 15
1 1 2 4 3 3 4 3 3 3 5 6 5 8 8 8 3 3 3 5 5 4 8 4 1 3 4 3 4 4 8 10 4 5 2 2 2 4 8 8 8 9 10 12 14
3 3 3 4 3 2 3 5 7 5 6 4 3 4 6 4 4 3 4 5 7 3 5 8 2 4 1 2 1 5 8 5 1 2 5 3 3 6 8 9 7 8 9 10 12
3 2 4 4 3 4 8 3 4 7 5 6 4 3 7 5 6 4 3 5 4 7 10 3 2 2 1 4 1 5 8 9 10 4 4 7 6 11 9 8 8 7 7 9 11
3 2 2 3 5 8 5 3 3 5 6 9 4 7 4 5 3 3 3 3 7 10 5 3 2 2 2 3 4 4 2 7 13 12 6 4 4 11 10 8 8 6 6 7 9
3 4 6 5 3 6 6 4 5 5 6 4 5 6 7 5 3 5 4 3 3 4 3 1 2 2 2 3 3 2 2 1 1 1 5 6 4 7 11 10 7 6 6 7 9
7 13 5 6 3 2 3 4 3 5 10 9 9 12 13 7 11 12 12 10 5 2 2 1 3 2 3 1 3 4 3 1 3 4 2 5 4 10 9 8 6 6 6 6 7
Wind_Direction
251 245 170 223 249 234 169 161 172 166 169 208 209 203 207 214 214 220 230 223 222 198 189 183 180 178 185 196 210 238 238 224 218 213 209 140 216 184 244 260 209 227 200 221 235
258 256 263 217 220 230 201 176 185 193 192 203 220 208 201 206 216 229 227 208 208 169 181 173 171 173 188 190 200 219 233 250 291 260 275 163 253 206 249 232 243 239 235 246 256
260 260 262 246 227 218 201 181 193 200 199 209 228 211 184 194 217 244 218 191 201 196 188 177 171 173 196 172 193 197 237 261 262 270 298 298 266 244 268 259 248 246 266 238 249
255 261 251 247 229 209 204 203 208 205 205 213 217 214 172 175 208 200 199 195 190 184 181 176 175 173 196 195 203 247 232 254 318 307 317 279 311 264 258 257 288 283 276 249 245
252 257 262 249 236 232 215 215 208 204 206 215 213 197 167 205 240 184 204 196 188 182 181 183 179 178 191 208 183 229 237 242 252 272 277 290 270 280 274 268 276 269 263 259 258
263 259 258 244 215 201 236 191 208 206 201 208 210 203 199 224 207 179 168 172 180 177 187 190 192 180 197 205 221 313 253 255 244 239 239 266 278 31 266 208 277 269 261 263 260
251 234 261 256 225 196 187 191 196 204 200 196 211 204 206 208 185 168 165 166 174 171 181 180 174 171 163 179 231 267 268 224 223 234 242 275 263 226 258 245 282 301 273 270 257
248 220 254 261 243 213 213 200 191 197 198 190 211 206 221 197 169 171 169 166 175 176 182 178 161 178 202 144 166 227 240 240 96 175 197 231 259 124 87 117 346 320 306 279 270
254 236 238 256 255 225 202 213 198 197 194 188 201 194 198 179 169 169 166 166 168 174 174 176 154 177 163 199 196 202 266 214 150 165 221 222 275 78 68 324 323 322 318 317 327
244 231 223 248 255 228 209 200 204 197 193 191 209 207 199 185 173 163 165 155 146 157 135 174 183 189 204 201 209 208 229 242 234 92 227 260 268 294 317 317 325 2 15 24 28
245 221 201 234 251 223 199 167 169 184 175 194 199 113 142 155 157 160 157 147 153 165 170 184 179 200 204 212 112 107 230 253 45 53 312 272 285 299 314 41 42 40 33 28 21
237 183 209 225 242 216 191 202 163 166 157 167 156 132 147 148 129 158 150 153 173 181 151 163 224 207 170 177 199 213 160 190 169 172 302 300 292 360 102 78 54 37 33 22 16
182 171 206 220 226 206 190 185 146 155 98 157 161 158 158 149 141 162 163 159 186 165 188 197 76 169 190 195 209 231 234 237 292 326 243 285 252 155 136 75 52 40 31 24 18
140 197 213 215 198 193 189 166 145 133 126 172 194 161 172 157 105 155 165 153 176 189 184 230 109 190 193 204 203 220 217 235 239 262 260 314 267 206 159 105 43 29 23 17 17
173 189 198 179 189 170 188 167 121 132 189 149 159 171 162 173 132 165 168 148 160 153 188 136 170 172 200 201 191 193 153 197 212 224 288 206 251 132 157 180 20 18 17 16 21
218 213 188 180 158 191 172 158 143 176 190 159 125 169 147 152 92 143 158 88 108 130 119 94 115 188 116 96 197 137 126 121 167 218 244 187 241 147 45 355 355 13 17 19 22
59 169 169 155 173 164 154 161 159 253 206 137 145 171 148 147 126 163 168 163 162 157 183 122 155 141 170 114 128 190 177 138 194 201 234 131 214 57 82 37 21 12 20 22 29
66 137 171 165 156 165 153 142 219 37 197 148 147 154 153 137 142 168 168 181 207 241 159 174 202 187 178 226 172 198 216 224 211 194 158 142 220 111 89 66 53 45 35 33 32
100 125 169 177 168 177 174 170 159 156 165 152 145 140 146 140 138 146 188 190 193 211 235 185 159 101 222 240 167 172 222 22 108 98 269 177 112 132 131 76 55 48 42 36 34
78 109 94 174 181 172 173 92 133 23 283 153 145 185 144 142 139 158 168 207 210 203 262 96 122 209 101 222 141 277 147 173 230 192 215 176 232 80 195 55 52 44 39 36 37
67 131 236 204 180 252 168 110 145 43 341 355 139 158 175 156 167 179 175 136 160 208 208 321 318 124 169 211 188 165 189 226 253 291 249 196 131 16 97 77 67 49 41 38 36
58 73 297 186 164 318 114 101 31 3 16 67 37 63 154 125 106 126 122 43 342 209 179 163 190 164 186 40 339 301 238 204 221 189 249 1 126 93 100 90 85 74 54 43 41
89 85 63 159 174 127 81 75 44 28 32 50 78 47 64 81 107 74 86 20 18 58 169 164 175 138 135 199 166 231 208 238 224 334 197 196 130 133 125 113 86 78 64 54 47
117 129 58 70 6 136 115 65 129 40 70 54 69 111 117 77 54 116 105 35 29 24 31 47 155 297 281 47 356 187 203 209 222 239 231 235 142 181 167 140 119 91 66 48 38
74 88 113 89 42 91 88 72 68 45 37 24 66 63 108 109 98 96 75 130 48 5 37 60 125 104 69 58 39 60 132 205 221 233 255 332 74 161 160 141 117 102 70 54 40
113 139 96 80 7 58 24 42 98 104 6 22 74 62 67 93 1 146 127 37 67 21 69 337 112 107 79 76 53 98 87 64 10 330 266 152 115 101 118 131 122 96 77 56 42
107 115 105 39 42 61 22 124 122 137 48 74 89 92 76 92 78 82 81 84 82 79 89 66 139 186 121 60 135 228 164 148 107 63 345 227 89 142 144 134 125 104 78 57 36